Time,TemperatureF,DewpointF,PressureIn,WindDirection,WindDirectionDegrees,WindSpeedMPH,WindSpeedGustMPH,Humidity,HourlyPrecipIn,Conditions,Clouds,dailyrainin,SoftwareType,DateUTC
2013-01-07 00:01:00,74.1,61.2,29.59,NNE,22,0.0,0.0,64,0.00,CLR,,0.00,WeatherDisplay:10.37,2013-01-06 13:01:00,
2013-01-07 00:06:00,74.1,60.7,29.59,WSW,248,0.0,0.0,63,0.00,CLR,,0.00,WeatherDisplay:10.37,2013-01-06 13:06:00,
2013-01-07 00:11:00,74.1,61.2,29.59,NE,45,0.0,0.0,64,0.00,CLR,,0.00,WeatherDisplay:10.37,2013-01-06 13:11:00,
2013-01-07 00:16:00,73.9,61.0,29.59,North,0,1.2,0.0,64,0.00,CLR,,0.00,WeatherDisplay:10.37,2013-01-06 13:16:00,
2013-01-07 00:21:00,73.9,61.4,29.59,NNE,22,0.0,0.0,65,0.00,CLR,,0.00,WeatherDisplay:10.37,2013-01-06 13:21:00,
2013-01-07 00:26:00,73.9,61.0,29.59,NW,315,0.0,0.0,64,0.00,CLR,,0.00,WeatherDisplay:10.37,2013-01-06 13:26:00,
2013-01-07 00:31:00,73.9,61.0,29.59,NNE,22,0.0,0.0,64,0.00,CLR,,0.00,WeatherDisplay:10.37,2013-01-06 13:31:00,
2013-01-07 00:36:00,73.9,61.4,29.59,ESE,112,1.2,0.0,65,0.00,CLR,,0.00,WeatherDisplay:10.37,2013-01-06 13:36:00,
2013-01-07 00:41:00,73.9,61.0,29.59,WNW,292,0.0,0.0,64,0.00,CLR,,0.00,WeatherDisplay:10.37,2013-01-06 13:41:00,
2013-01-07 00:46:00,73.9,61.0,29.59,WNW,292,0.0,0.0,64,0.00,CLR,,0.00,WeatherDisplay:10.37,2013-01-06 13:46:00,
2013-01-07 00:51:00,74.1,61.2,29.59,West,270,0.0,0.0,64,0.00,CLR,,0.00,WeatherDisplay:10.37,2013-01-06 13:51:00,
2013-01-07 00:56:00,73.9,61.4,29.59,ENE,68,0.0,0.0,65,0.00,CLR,,0.00,WeatherDisplay:10.37,2013-01-06 13:56:00,
2013-01-07 01:01:00,73.9,61.0,29.59,SE,135,0.0,0.0,64,0.00,CLR,,0.00,WeatherDisplay:10.37,2013-01-06 14:01:00,
2013-01-07 01:06:00,73.9,61.0,29.59,SSE,158,0.0,0.0,64,0.00,CLR,,0.00,WeatherDisplay:10.37,2013-01-06 14:06:00,
2013-01-07 01:11:00,73.9,60.5,29.59,South,180,0.0,0.0,63,0.00,CLR,,0.00,WeatherDisplay:10.37,2013-01-06 14:11:00,
2013-01-07 01:16:00,73.9,61.4,29.59,ENE,68,0.0,0.0,65,0.00,CLR,,0.00,WeatherDisplay:10.37,2013-01-06 14:16:00,
2013-01-07 01:21:00,73.9,61.4,29.59,ESE,112,0.0,0.0,65,0.00,CLR,,0.00,WeatherDisplay:10.37,2013-01-06 14:21:00,
2013-01-07 01:26:00,73.9,61.4,29.59,NNE,22,0.0,0.0,65,0.00,CLR,,0.00,WeatherDisplay:10.37,2013-01-06 14:26:00,
2013-01-07 01:31:00,73.8,61.3,29.56,NE,45,0.0,0.0,65,0.00,CLR,,0.00,WeatherDisplay:10.37,2013-01-06 14:31:00,
2013-01-07 01:36:00,73.8,60.8,29.56,ENE,68,2.4,0.0,64,0.00,CLR,,0.00,WeatherDisplay:10.37,2013-01-06 14:36:00,
2013-01-07 01:41:00,73.8,61.3,29.56,NE,45,0.0,0.0,65,0.00,CLR,,0.00,WeatherDisplay:10.37,2013-01-06 14:41:00,
2013-01-07 01:46:00,73.8,61.3,29.56,NNE,22,0.0,0.0,65,0.00,CLR,,0.00,WeatherDisplay:10.37,2013-01-06 14:46:00,
2013-01-07 01:51:00,73.8,61.3,29.56,NNE,22,0.0,0.0,65,0.00,CLR,,0.00,WeatherDisplay:10.37,2013-01-06 14:51:00,
2013-01-07 01:56:00,73.8,61.7,29.56,NE,45,0.0,0.0,66,0.00,CLR,,0.00,WeatherDisplay:10.37,2013-01-06 14:56:00,
2013-01-07 02:01:00,73.8,61.3,29.59,NW,315,0.0,0.0,65,0.00,CLR,,0.00,WeatherDisplay:10.37,2013-01-06 15:01:00,
2013-01-07 02:06:00,73.6,61.1,29.59,WNW,292,0.0,0.0,65,0.00,CLR,,0.00,WeatherDisplay:10.37,2013-01-06 15:06:00,
2013-01-07 02:11:00,73.6,61.1,29.59,WNW,292,0.0,0.0,65,0.00,CLR,,0.00,WeatherDisplay:10.37,2013-01-06 15:11:00,
2013-01-07 02:16:00,73.6,60.6,29.56,West,270,0.0,0.0,64,0.00,CLR,,0.00,WeatherDisplay:10.37,2013-01-06 15:16:00,
2013-01-07 02:21:00,73.6,61.1,29.56,SE,135,0.0,0.0,65,0.00,CLR,,0.00,WeatherDisplay:10.37,2013-01-06 15:21:00,
2013-01-07 02:26:00,73.6,61.1,29.56,WNW,292,0.0,0.0,65,0.00,CLR,,0.00,WeatherDisplay:10.37,2013-01-06 15:26:00,
2013-01-07 02:31:00,73.4,60.9,29.59,WNW,292,0.0,0.0,65,0.00,CLR,,0.00,WeatherDisplay:10.37,2013-01-06 15:31:00,
2013-01-07 02:36:00,73.4,60.9,29.59,West,270,0.0,0.0,65,0.00,CLR,,0.00,WeatherDisplay:10.37,2013-01-06 15:36:00,
2013-01-07 02:41:00,73.4,60.5,29.59,West,270,0.0,0.0,64,0.00,CLR,,0.00,WeatherDisplay:10.37,2013-01-06 15:41:00,
2013-01-07 02:46:00,73.4,60.9,29.56,WNW,292,0.0,0.0,65,0.00,CLR,,0.00,WeatherDisplay:10.37,2013-01-06 15:46:00,
2013-01-07 02:52:00,73.4,60.9,29.56,West,270,0.0,0.0,65,0.00,CLR,,0.00,WeatherDisplay:10.37,2013-01-06 15:52:00,
2013-01-07 02:57:00,73.4,60.9,29.56,WNW,292,0.0,0.0,65,0.00,CLR,,0.00,WeatherDisplay:10.37,2013-01-06 15:57:00,
2013-01-07 03:02:00,73.2,60.7,29.56,West,270,0.0,0.0,65,0.00,CLR,,0.00,WeatherDisplay:10.37,2013-01-06 16:02:00,
2013-01-07 03:07:00,73.2,60.7,29.56,West,270,0.0,0.0,65,0.00,CLR,,0.00,WeatherDisplay:10.37,2013-01-06 16:07:00,
2013-01-07 03:12:00,73.2,61.2,29.56,WNW,292,0.0,0.0,66,0.00,CLR,,0.00,WeatherDisplay:10.37,2013-01-06 16:12:00,
2013-01-07 03:17:00,73.2,61.2,29.56,West,270,0.0,0.0,66,0.00,CLR,,0.00,WeatherDisplay:10.37,2013-01-06 16:17:00,
2013-01-07 03:22:00,73.2,61.2,29.56,West,270,0.0,0.0,66,0.00,CLR,,0.00,WeatherDisplay:10.37,2013-01-06 16:22:00,
2013-01-07 03:27:00,73.2,61.6,29.56,North,0,0.0,0.0,67,0.00,CLR,,0.00,WeatherDisplay:10.37,2013-01-06 16:27:00,
2013-01-07 03:33:00,73.0,61.0,29.56,NW,315,0.0,0.0,66,0.00,CLR,,0.00,WeatherDisplay:10.37,2013-01-06 16:33:00,
2013-01-07 03:38:00,73.0,61.0,29.56,West,270,0.0,0.0,66,0.00,CLR,,0.00,WeatherDisplay:10.37,2013-01-06 16:38:00,
2013-01-07 03:43:00,73.0,61.0,29.56,West,270,0.0,0.0,66,0.00,CLR,,0.00,WeatherDisplay:10.37,2013-01-06 16:43:00,
2013-01-07 03:48:00,73.0,60.6,29.59,WSW,248,0.0,0.0,65,0.00,CLR,,0.00,WeatherDisplay:10.37,2013-01-06 16:48:00,
2013-01-07 03:53:00,73.0,61.0,29.59,West,270,0.0,0.0,66,0.00,CLR,,0.00,WeatherDisplay:10.37,2013-01-06 16:53:00,
2013-01-07 03:58:00,73.0,61.0,29.59,West,270,0.0,0.0,66,0.00,CLR,,0.00,WeatherDisplay:10.37,2013-01-06 16:58:00,
2013-01-07 04:03:00,73.0,61.4,29.59,NE,45,0.0,0.0,67,0.00,CLR,,0.00,WeatherDisplay:10.37,2013-01-06 17:03:00,
2013-01-07 04:08:00,72.9,61.3,29.59,NNE,22,0.0,0.0,67,0.00,CLR,,0.00,WeatherDisplay:10.37,2013-01-06 17:08:00,
2013-01-07 04:13:00,72.9,61.3,29.59,West,270,0.0,0.0,67,0.00,CLR,,0.00,WeatherDisplay:10.37,2013-01-06 17:13:00,
2013-01-07 04:18:00,72.7,61.5,29.56,West,270,0.0,0.0,68,0.00,CLR,,0.00,WeatherDisplay:10.37,2013-01-06 17:18:00,
2013-01-07 04:23:00,72.7,61.5,29.56,West,270,0.0,0.0,68,0.00,CLR,,0.00,WeatherDisplay:10.37,2013-01-06 17:23:00,
2013-01-07 04:29:00,72.7,61.5,29.56,West,270,0.0,0.0,68,0.00,CLR,,0.00,WeatherDisplay:10.37,2013-01-06 17:29:00,
2013-01-07 04:34:00,72.5,61.3,29.56,West,270,0.0,0.0,68,0.00,CLR,,0.00,WeatherDisplay:10.37,2013-01-06 17:34:00,
2013-01-07 04:39:00,72.5,61.7,29.56,NE,45,0.0,0.0,69,0.00,CLR,,0.00,WeatherDisplay:10.37,2013-01-06 17:39:00,
2013-01-07 04:45:00,72.3,61.2,29.56,SSW,202,0.0,0.0,68,0.00,CLR,,0.00,WeatherDisplay:10.37,2013-01-06 17:45:00,
2013-01-07 04:50:00,72.3,61.2,29.56,SSW,202,0.0,0.0,68,0.00,CLR,,0.00,WeatherDisplay:10.37,2013-01-06 17:50:00,
2013-01-07 04:55:00,72.3,61.2,29.56,SE,135,0.0,0.0,68,0.00,CLR,,0.00,WeatherDisplay:10.37,2013-01-06 17:55:00,
2013-01-07 05:00:00,72.3,61.2,29.56,WSW,248,0.0,0.0,68,0.00,CLR,,0.00,WeatherDisplay:10.37,2013-01-06 18:00:00,
2013-01-07 05:05:00,72.3,61.6,29.56,NE,45,0.0,0.0,69,0.00,CLR,,0.00,WeatherDisplay:10.37,2013-01-06 18:05:00,
2013-01-07 05:10:00,72.3,61.2,29.56,South,180,0.0,0.0,68,0.00,CLR,,0.00,WeatherDisplay:10.37,2013-01-06 18:10:00,
2013-01-07 05:16:00,72.1,61.0,29.56,West,270,0.0,0.0,68,0.00,CLR,,0.00,WeatherDisplay:10.37,2013-01-06 18:16:00,
2013-01-07 05:21:00,72.1,61.0,29.59,WSW,248,0.0,0.0,68,0.00,CLR,,0.00,WeatherDisplay:10.37,2013-01-06 18:21:00,
2013-01-07 05:26:00,72.0,60.8,29.59,WSW,248,0.0,0.0,68,0.00,CLR,,0.00,WeatherDisplay:10.37,2013-01-06 18:26:00,
2013-01-07 05:31:00,72.0,60.8,29.59,SW,225,0.0,0.0,68,0.00,CLR,,0.00,WeatherDisplay:10.37,2013-01-06 18:31:00,
2013-01-07 05:36:00,71.8,61.1,29.56,NW,315,0.0,0.0,69,0.00,CLR,,0.00,WeatherDisplay:10.37,2013-01-06 18:36:00,
2013-01-07 05:41:00,71.6,60.5,29.56,West,270,0.0,0.0,68,0.00,CLR,,0.00,WeatherDisplay:10.37,2013-01-06 18:41:00,
2013-01-07 05:46:00,71.6,60.5,29.59,SW,225,0.0,0.0,68,0.00,CLR,,0.00,WeatherDisplay:10.37,2013-01-06 18:46:00,
2013-01-07 05:51:00,71.4,60.7,29.59,SW,225,0.0,0.0,69,0.00,CLR,,0.00,WeatherDisplay:10.37,2013-01-06 18:51:00,
2013-01-07 05:56:00,71.2,60.5,29.59,SW,225,0.0,0.0,69,0.00,CLR,,0.00,WeatherDisplay:10.37,2013-01-06 18:56:00,
2013-01-07 06:01:00,71.2,60.5,29.59,West,270,0.0,0.0,69,0.00,CLR,,0.00,WeatherDisplay:10.37,2013-01-06 19:01:00,
2013-01-07 06:06:00,71.1,60.4,29.59,West,270,0.0,0.0,69,0.00,CLR,,0.00,WeatherDisplay:10.37,2013-01-06 19:06:00,
2013-01-07 06:11:00,71.1,60.4,29.59,SW,225,0.0,0.0,69,0.00,CLR,,0.00,WeatherDisplay:10.37,2013-01-06 19:11:00,
2013-01-07 06:18:00,71.1,60.4,29.59,SW,225,0.0,0.0,69,0.00,CLR,,0.00,WeatherDisplay:10.37,2013-01-06 19:18:00,
2013-01-07 06:23:00,70.9,60.6,29.59,South,180,0.0,0.0,70,0.00,CLR,,0.00,WeatherDisplay:10.37,2013-01-06 19:23:00,
2013-01-07 06:28:00,70.9,60.2,29.59,WSW,248,0.0,0.0,69,0.00,CLR,,0.00,WeatherDisplay:10.37,2013-01-06 19:28:00,
2013-01-07 06:33:00,70.9,60.6,29.59,SW,225,0.0,0.0,70,0.00,CLR,,0.00,WeatherDisplay:10.37,2013-01-06 19:33:00,
2013-01-07 06:38:00,70.7,60.4,29.59,SE,135,0.0,0.0,70,0.00,CLR,,0.00,WeatherDisplay:10.37,2013-01-06 19:38:00,
2013-01-07 06:48:00,70.7,60.8,29.62,NNE,22,0.0,0.0,71,0.00,CLR,,0.00,WeatherDisplay:10.37,2013-01-06 19:48:00,
2013-01-07 06:54:00,70.5,60.7,29.62,North,0,0.0,0.0,71,0.00,CLR,,0.00,WeatherDisplay:10.37,2013-01-06 19:54:00,
2013-01-07 06:59:00,70.7,60.8,29.62,NNW,338,0.0,0.0,71,0.00,CLR,,0.00,WeatherDisplay:10.37,2013-01-06 19:59:00,
2013-01-07 07:04:00,70.9,61.4,29.62,NNW,338,0.0,0.0,72,0.00,CLR,,0.00,WeatherDisplay:10.37,2013-01-06 20:04:00,
2013-01-07 07:09:00,70.9,61.4,29.62,NNE,22,0.0,0.0,72,0.00,CLR,,0.00,WeatherDisplay:10.37,2013-01-06 20:09:00,
2013-01-07 07:11:00,70.9,61.4,29.62,NNE,22,0.0,0.0,72,0.00,CLR,,0.00,WeatherDisplay:10.37,2013-01-06 20:11:00,
2013-01-07 07:13:00,71.1,61.6,29.62,NNE,22,0.0,0.0,72,0.00,CLR,,0.00,WeatherDisplay:10.37,2013-01-06 20:13:00,
2013-01-07 07:18:00,71.2,61.7,29.62,NNW,338,0.0,0.0,72,0.00,CLR,,0.00,WeatherDisplay:10.37,2013-01-06 20:18:00,
2013-01-07 07:23:00,71.4,61.9,29.62,WNW,292,0.0,0.0,72,0.00,CLR,,0.00,WeatherDisplay:10.37,2013-01-06 20:23:00,
2013-01-07 07:28:00,71.6,62.1,29.62,NW,315,0.0,0.0,72,0.00,CLR,,0.00,WeatherDisplay:10.37,2013-01-06 20:28:00,
2013-01-07 07:33:00,71.8,62.7,29.62,NNW,338,0.0,0.0,73,0.00,CLR,,0.00,WeatherDisplay:10.37,2013-01-06 20:33:00,
2013-01-07 07:38:00,72.0,62.8,29.62,West,270,0.0,0.0,73,0.00,CLR,,0.00,WeatherDisplay:10.37,2013-01-06 20:38:00,
2013-01-07 07:43:00,72.1,63.0,29.62,WNW,292,0.0,0.0,73,0.00,CLR,,0.00,WeatherDisplay:10.37,2013-01-06 20:43:00,
2013-01-07 07:48:00,72.5,63.4,29.62,NW,315,0.0,0.0,73,0.00,CLR,,0.00,WeatherDisplay:10.37,2013-01-06 20:48:00,
2013-01-07 07:53:00,72.9,63.7,29.62,NE,45,0.0,0.0,73,0.00,CLR,,0.00,WeatherDisplay:10.37,2013-01-06 20:53:00,
2013-01-07 07:58:00,73.2,63.6,29.62,NE,45,0.0,0.0,72,0.00,CLR,,0.00,WeatherDisplay:10.37,2013-01-06 20:58:00,
2013-01-07 08:01:00,73.4,63.8,29.62,NE,45,1.2,0.0,72,0.00,CLR,,0.00,WeatherDisplay:10.37,2013-01-06 21:01:00,
2013-01-07 08:07:00,74.7,64.6,29.62,NNE,22,2.3,2.3,71,0.00,CLR,,0.00,WeatherDisplay:10.37,2013-01-06 21:07:00,
2013-01-07 08:14:00,75.6,64.7,29.62,NE,45,0.0,0.0,69,0.00,CLR,,0.00,WeatherDisplay:10.37,2013-01-06 21:14:00,
2013-01-07 08:19:00,76.3,64.9,29.62,West,270,3.1,0.0,68,0.00,CLR,,0.00,WeatherDisplay:10.37,2013-01-06 21:19:00,
2013-01-07 08:24:00,77.2,65.4,29.62,NNE,22,2.3,2.3,67,0.00,CLR,,0.00,WeatherDisplay:10.37,2013-01-06 21:24:00,
2013-01-07 08:29:00,77.9,65.6,29.62,North,0,2.3,2.3,66,0.00,CLR,,0.00,WeatherDisplay:10.37,2013-01-06 21:29:00,
2013-01-07 08:34:00,78.8,66.5,29.59,NNW,338,2.2,2.2,66,0.00,CLR,,0.00,WeatherDisplay:10.37,2013-01-06 21:34:00,
2013-01-07 08:39:00,79.9,66.6,29.59,East,90,3.3,0.0,64,0.00,CLR,,0.00,WeatherDisplay:10.37,2013-01-06 21:39:00,
2013-01-07 08:44:00,80.4,66.2,29.59,NNE,22,3.6,3.6,62,0.00,CLR,,0.00,WeatherDisplay:10.37,2013-01-06 21:44:00,
2013-01-07 08:49:00,79.9,65.2,29.59,East,90,4.6,4.6,61,0.00,CLR,,0.00,WeatherDisplay:10.37,2013-01-06 21:49:00,
2013-01-07 08:54:00,78.6,63.1,29.59,NE,45,4.3,4.3,59,0.00,CLR,,0.00,WeatherDisplay:10.37,2013-01-06 21:54:00,
2013-01-07 08:59:00,79.9,64.3,29.59,ESE,112,3.6,3.6,59,0.00,CLR,,0.00,WeatherDisplay:10.37,2013-01-06 21:59:00,
2013-01-07 09:04:00,80.8,63.6,29.59,SSW,202,3.5,3.5,56,0.00,CLR,,0.00,WeatherDisplay:10.37,2013-01-06 22:04:00,
2013-01-07 09:09:00,81.7,63.9,29.59,NNE,22,3.5,3.5,55,0.00,CLR,,0.00,WeatherDisplay:10.37,2013-01-06 22:09:00,
2013-01-07 09:14:00,82.9,64.0,29.59,NE,45,4.6,4.6,53,0.00,CLR,,0.00,WeatherDisplay:10.37,2013-01-06 22:14:00,
2013-01-07 09:19:00,83.3,63.3,29.59,NNE,22,4.6,4.6,51,0.00,CLR,,0.00,WeatherDisplay:10.37,2013-01-06 22:19:00,
2013-01-07 09:24:00,84.4,64.3,29.59,NE,45,4.3,4.3,51,0.00,CLR,,0.00,WeatherDisplay:10.37,2013-01-06 22:24:00,
2013-01-07 09:31:00,84.9,63.0,29.59,NNE,22,4.6,4.6,48,0.00,CLR,,0.00,WeatherDisplay:10.37,2013-01-06 22:31:00,
2013-01-07 09:36:00,84.0,61.6,29.59,ENE,68,3.5,3.6,47,0.00,CLR,,0.00,WeatherDisplay:10.37,2013-01-06 22:36:00,
2013-01-07 09:41:00,85.6,63.1,29.59,ESE,112,5.8,5.9,47,0.00,CLR,,0.00,WeatherDisplay:10.37,2013-01-06 22:41:00,
2013-01-07 09:46:00,86.4,63.1,29.59,SSE,158,7.8,7.8,46,0.00,CLR,,0.00,WeatherDisplay:10.37,2013-01-06 22:46:00,
2013-01-07 09:51:00,86.9,63.0,29.56,ENE,68,4.3,4.3,45,0.00,CLR,,0.00,WeatherDisplay:10.37,2013-01-06 22:51:00,
2013-01-07 09:56:00,86.2,61.7,29.56,NE,45,4.6,4.6,44,0.00,CLR,,0.00,WeatherDisplay:10.37,2013-01-06 22:56:00,
2013-01-07 10:01:00,86.9,62.4,29.56,SSW,202,4.6,4.6,44,0.00,CLR,,0.00,WeatherDisplay:10.37,2013-01-06 23:01:00,
2013-01-07 10:06:00,86.5,61.4,29.56,NE,45,5.8,5.8,43,0.00,CLR,,0.00,WeatherDisplay:10.37,2013-01-06 23:06:00,
2013-01-07 10:11:00,85.1,60.7,29.56,East,90,5.8,5.8,44,0.00,CLR,,0.00,WeatherDisplay:10.37,2013-01-06 23:11:00,
2013-01-07 10:16:00,85.8,61.4,29.56,NE,45,3.5,3.5,44,0.00,CLR,,0.00,WeatherDisplay:10.37,2013-01-06 23:16:00,
2013-01-07 10:21:00,85.3,60.9,29.53,NE,45,2.3,2.3,44,0.00,CLR,,0.00,WeatherDisplay:10.37,2013-01-06 23:21:00,
2013-01-07 10:26:00,86.4,61.9,29.53,NE,45,4.3,4.3,44,0.00,CLR,,0.00,WeatherDisplay:10.37,2013-01-06 23:26:00,
2013-01-07 10:31:00,84.7,60.4,29.53,ESE,112,4.0,4.0,44,0.00,CLR,,0.00,WeatherDisplay:10.37,2013-01-06 23:31:00,
2013-01-07 10:36:00,85.6,61.2,29.56,NE,45,3.5,3.5,44,0.00,CLR,,0.00,WeatherDisplay:10.37,2013-01-06 23:36:00,
2013-01-07 10:41:00,84.7,60.4,29.56,East,90,4.6,4.6,44,0.00,CLR,,0.00,WeatherDisplay:10.37,2013-01-06 23:41:00,
2013-01-07 10:46:00,84.6,60.9,29.56,East,90,4.6,4.6,45,0.00,CLR,,0.00,WeatherDisplay:10.37,2013-01-06 23:46:00,
2013-01-07 10:51:00,85.3,61.5,29.56,North,0,3.6,3.6,45,0.00,CLR,,0.00,WeatherDisplay:10.37,2013-01-06 23:51:00,
2013-01-07 10:56:00,86.7,62.2,29.56,ENE,68,3.8,3.8,44,0.00,CLR,,0.00,WeatherDisplay:10.37,2013-01-06 23:56:00,
2013-01-07 11:01:00,88.5,63.2,29.56,ENE,68,3.6,3.6,43,0.00,CLR,,0.00,WeatherDisplay:10.37,2013-01-07 00:01:00,
2013-01-07 11:06:00,88.5,61.8,29.53,NE,45,4.6,4.6,41,0.00,CLR,,0.00,WeatherDisplay:10.37,2013-01-07 00:06:00,
2013-01-07 11:11:00,89.1,61.6,29.53,ENE,68,5.8,5.8,40,0.00,CLR,,0.00,WeatherDisplay:10.37,2013-01-07 00:11:00,
2013-01-07 11:17:00,89.8,62.2,29.56,NNE,22,3.5,3.5,40,0.00,CLR,,0.00,WeatherDisplay:10.37,2013-01-07 00:17:00,
2013-01-07 11:24:00,90.9,63.2,29.56,NNW,338,4.6,4.6,40,0.00,CLR,,0.00,WeatherDisplay:10.37,2013-01-07 00:24:00,
2013-01-07 11:29:00,90.9,62.5,29.56,NE,45,5.8,5.8,39,0.00,CLR,,0.00,WeatherDisplay:10.37,2013-01-07 00:29:00,
2013-01-07 11:34:00,90.9,61.7,29.53,NE,45,2.2,0.0,38,0.00,CLR,,0.00,WeatherDisplay:10.37,2013-01-07 00:34:00,
2013-01-07 11:40:00,90.9,61.7,29.53,ENE,68,5.8,5.8,38,0.00,CLR,,0.00,WeatherDisplay:10.37,2013-01-07 00:40:00,
2013-01-07 11:45:00,91.0,61.9,29.53,East,90,3.6,3.6,38,0.00,CLR,,0.00,WeatherDisplay:10.37,2013-01-07 00:45:00,
2013-01-07 11:50:00,92.1,62.1,29.50,NE,45,3.5,3.5,37,0.00,CLR,,0.00,WeatherDisplay:10.37,2013-01-07 00:50:00,
2013-01-07 11:55:00,91.9,61.9,29.50,ESE,112,5.8,5.8,37,0.00,CLR,,0.00,WeatherDisplay:10.37,2013-01-07 00:55:00,
2013-01-07 12:00:00,92.7,62.6,29.50,NNE,22,4.6,4.6,37,0.00,CLR,,0.00,WeatherDisplay:10.37,2013-01-07 01:00:00,
2013-01-07 12:05:00,92.3,59.9,29.50,ESE,112,4.6,4.6,34,0.00,CLR,,0.00,WeatherDisplay:10.37,2013-01-07 01:05:00,
2013-01-07 12:10:00,92.7,61.8,29.50,NE,45,5.6,5.6,36,0.00,CLR,,0.00,WeatherDisplay:10.37,2013-01-07 01:10:00,
2013-01-07 12:15:00,92.8,60.3,29.50,ENE,68,4.6,4.6,34,0.00,CLR,,0.00,WeatherDisplay:10.37,2013-01-07 01:15:00,
2013-01-07 12:20:00,92.8,60.3,29.47,East,90,6.9,6.9,34,0.00,CLR,,0.00,WeatherDisplay:10.37,2013-01-07 01:20:00,
2013-01-07 12:25:00,93.0,59.7,29.47,NNE,22,3.8,3.8,33,0.00,CLR,,0.00,WeatherDisplay:10.37,2013-01-07 01:25:00,
2013-01-07 12:30:00,93.0,59.7,29.47,ESE,112,4.9,4.9,33,0.00,CLR,,0.00,WeatherDisplay:10.37,2013-01-07 01:30:00,
2013-01-07 12:36:00,93.4,59.1,29.47,NNE,22,4.6,4.6,32,0.00,CLR,,0.00,WeatherDisplay:10.37,2013-01-07 01:36:00,
2013-01-07 12:41:00,93.7,60.3,29.47,East,90,4.6,4.6,33,0.00,CLR,,0.00,WeatherDisplay:10.37,2013-01-07 01:41:00,
2013-01-07 12:47:00,94.5,61.8,29.47,East,90,4.6,4.6,34,0.00,CLR,,0.00,WeatherDisplay:10.37,2013-01-07 01:47:00,
2013-01-07 12:52:00,94.3,59.9,29.47,East,90,4.6,4.6,32,0.00,CLR,,0.00,WeatherDisplay:10.37,2013-01-07 01:52:00,
2013-01-07 12:57:00,95.0,61.4,29.47,NNE,22,3.5,3.5,33,0.00,CLR,,0.00,WeatherDisplay:10.37,2013-01-07 01:57:00,
2013-01-07 13:02:00,94.8,59.5,29.47,NE,45,4.6,4.6,31,0.00,CLR,,0.00,WeatherDisplay:10.37,2013-01-07 02:02:00,
2013-01-07 13:07:00,94.3,59.0,29.47,North,0,4.6,4.6,31,0.00,CLR,,0.00,WeatherDisplay:10.37,2013-01-07 02:07:00,
2013-01-07 13:12:00,93.7,57.6,29.47,North,0,4.6,4.6,30,0.00,CLR,,0.00,WeatherDisplay:10.37,2013-01-07 02:12:00,
2013-01-07 13:17:00,94.6,59.3,29.44,NNE,22,2.3,2.3,31,0.00,CLR,,0.00,WeatherDisplay:10.37,2013-01-07 02:17:00,
2013-01-07 13:22:00,95.0,58.7,29.44,NE,45,5.9,5.9,30,0.00,CLR,,0.00,WeatherDisplay:10.37,2013-01-07 02:22:00,
2013-01-07 13:27:00,93.9,57.8,29.44,NNE,22,4.6,4.6,30,0.00,CLR,,0.00,WeatherDisplay:10.37,2013-01-07 02:27:00,
2013-01-07 13:32:00,94.6,59.3,29.44,NNE,22,3.1,3.1,31,0.00,CLR,,0.00,WeatherDisplay:10.37,2013-01-07 02:32:00,
2013-01-07 13:37:00,95.5,59.2,29.44,NE,45,3.5,3.5,30,0.00,CLR,,0.00,WeatherDisplay:10.37,2013-01-07 02:37:00,
2013-01-07 13:44:00,95.5,59.2,29.44,NE,45,3.6,3.6,30,0.00,CLR,,0.00,WeatherDisplay:10.37,2013-01-07 02:44:00,
2013-01-07 13:49:00,96.1,59.6,29.44,NE,45,3.5,3.5,30,0.00,CLR,,0.00,WeatherDisplay:10.37,2013-01-07 02:49:00,
2013-01-07 13:54:00,95.0,57.8,29.44,NNE,22,5.8,5.8,29,0.00,CLR,,0.00,WeatherDisplay:10.37,2013-01-07 02:54:00,
2013-01-07 13:59:00,95.4,58.1,29.44,North,0,3.5,3.5,29,0.00,CLR,,0.00,WeatherDisplay:10.37,2013-01-07 02:59:00,
2013-01-07 14:04:00,95.4,59.0,29.41,NE,45,4.6,4.6,30,0.00,CLR,,0.00,WeatherDisplay:10.37,2013-01-07 03:04:00,
2013-01-07 14:09:00,95.4,59.0,29.41,ENE,68,4.6,4.6,30,0.00,CLR,,0.00,WeatherDisplay:10.37,2013-01-07 03:09:00,
2013-01-07 14:14:00,95.5,59.2,29.41,NE,45,2.9,2.9,30,0.00,CLR,,0.00,WeatherDisplay:10.37,2013-01-07 03:14:00,
2013-01-07 14:20:00,94.8,59.5,29.38,East,90,5.8,5.8,31,0.00,CLR,,0.00,WeatherDisplay:10.37,2013-01-07 03:20:00,
2013-01-07 14:25:00,95.2,59.8,29.38,NE,45,3.5,3.5,31,0.00,CLR,,0.00,WeatherDisplay:10.37,2013-01-07 03:25:00,
2013-01-07 14:30:00,94.6,58.4,29.38,NNE,22,5.8,5.8,30,0.00,CLR,,0.00,WeatherDisplay:10.37,2013-01-07 03:30:00,
2013-01-07 14:35:00,94.6,59.3,29.38,NE,45,4.6,4.6,31,0.00,CLR,,0.00,WeatherDisplay:10.37,2013-01-07 03:35:00,
2013-01-07 14:40:00,94.8,59.5,29.38,East,90,4.6,4.6,31,0.00,CLR,,0.00,WeatherDisplay:10.37,2013-01-07 03:40:00,
2013-01-07 14:45:00,94.3,59.0,29.38,ENE,68,4.6,4.6,31,0.00,CLR,,0.00,WeatherDisplay:10.37,2013-01-07 03:45:00,
2013-01-07 14:50:00,94.5,60.1,29.38,SE,135,4.6,4.6,32,0.00,CLR,,0.00,WeatherDisplay:10.37,2013-01-07 03:50:00,
2013-01-07 14:55:00,95.2,60.7,29.38,NE,45,4.3,4.3,32,0.00,CLR,,0.00,WeatherDisplay:10.37,2013-01-07 03:55:00,
2013-01-07 15:00:00,94.3,59.9,29.38,East,90,5.8,5.8,32,0.00,CLR,,0.00,WeatherDisplay:10.37,2013-01-07 04:00:00,
2013-01-07 15:05:00,94.6,61.1,29.38,NE,45,4.0,4.0,33,0.00,CLR,,0.00,WeatherDisplay:10.37,2013-01-07 04:05:00,
2013-01-07 15:10:00,94.6,60.2,29.38,SE,135,4.6,4.6,32,0.00,CLR,,0.00,WeatherDisplay:10.37,2013-01-07 04:10:00,
2013-01-07 15:16:00,94.8,61.2,29.38,ESE,112,4.6,4.6,33,0.00,CLR,,0.00,WeatherDisplay:10.37,2013-01-07 04:16:00,
2013-01-07 15:21:00,94.3,60.8,29.35,ENE,68,4.6,4.6,33,0.00,CLR,,0.00,WeatherDisplay:10.37,2013-01-07 04:21:00,
2013-01-07 15:26:00,93.0,61.3,29.35,NE,45,6.9,6.9,35,0.00,CLR,,0.00,WeatherDisplay:10.37,2013-01-07 04:26:00,
2013-01-07 15:31:00,92.7,61.8,29.35,ESE,112,5.8,5.8,36,0.00,CLR,,0.00,WeatherDisplay:10.37,2013-01-07 04:31:00,
2013-01-07 15:36:00,93.0,62.1,29.35,SE,135,6.9,6.9,36,0.00,CLR,,0.00,WeatherDisplay:10.37,2013-01-07 04:36:00,
2013-01-07 15:41:00,93.4,62.4,29.35,NE,45,3.6,3.6,36,0.00,CLR,,0.00,WeatherDisplay:10.37,2013-01-07 04:41:00,
2013-01-07 15:46:00,93.6,62.6,29.35,East,90,5.8,5.8,36,0.00,CLR,,0.00,WeatherDisplay:10.37,2013-01-07 04:46:00,
2013-01-07 15:51:00,93.4,62.4,29.35,East,90,5.8,5.8,36,0.00,CLR,,0.00,WeatherDisplay:10.37,2013-01-07 04:51:00,
2013-01-07 15:56:00,93.0,62.1,29.35,SE,135,5.8,5.8,36,0.00,CLR,,0.00,WeatherDisplay:10.37,2013-01-07 04:56:00,
2013-01-07 16:00:00,93.0,62.1,29.35,ENE,78,5.0,7.0,36,0.00,CLR,,0.00,WeatherDisplay:10.37,2013-01-07 05:00:00,
2013-01-07 16:01:00,93.0,62.1,29.35,NE,45,5.8,5.8,36,0.00,CLR,,0.00,WeatherDisplay:10.37,2013-01-07 05:01:00,
2013-01-07 16:06:00,92.7,61.8,29.32,NE,45,5.8,5.8,36,0.00,CLR,,0.00,WeatherDisplay:10.37,2013-01-07 05:06:00,
2013-01-07 16:11:00,92.5,62.4,29.32,East,90,4.6,4.6,37,0.00,CLR,,0.00,WeatherDisplay:10.37,2013-01-07 05:11:00,
2013-01-07 16:16:00,92.7,62.6,29.32,NE,45,3.5,3.5,37,0.00,CLR,,0.00,WeatherDisplay:10.37,2013-01-07 05:16:00,
2013-01-07 16:23:00,91.2,62.1,29.32,ESE,112,9.2,9.2,38,0.00,CLR,,0.00,WeatherDisplay:10.37,2013-01-07 05:23:00,
2013-01-07 16:28:00,90.5,62.2,29.32,East,90,7.4,7.4,39,0.00,CLR,,0.00,WeatherDisplay:10.37,2013-01-07 05:28:00,
2013-01-07 16:33:00,89.8,61.5,29.32,ENE,68,5.8,5.8,39,0.00,CLR,,0.00,WeatherDisplay:10.37,2013-01-07 05:33:00,
2013-01-07 16:38:00,89.6,62.1,29.32,ENE,68,10.4,10.4,40,0.00,CLR,,0.00,WeatherDisplay:10.37,2013-01-07 05:38:00,
2013-01-07 16:43:00,89.1,62.3,29.32,SSE,158,10.4,10.4,41,0.00,CLR,,0.00,WeatherDisplay:10.37,2013-01-07 05:43:00,
2013-01-07 16:48:00,89.1,62.3,29.32,South,180,6.9,6.9,41,0.00,CLR,,0.00,WeatherDisplay:10.37,2013-01-07 05:48:00,
2013-01-07 16:53:00,89.1,62.3,29.32,ESE,112,8.1,8.1,41,0.00,CLR,,0.00,WeatherDisplay:10.37,2013-01-07 05:53:00,
2013-01-07 16:59:00,88.0,62.0,29.32,ESE,112,10.7,10.7,42,0.00,CLR,,0.00,WeatherDisplay:10.37,2013-01-07 05:59:00,
2013-01-07 17:04:00,87.6,62.4,29.32,ESE,112,10.4,10.4,43,0.00,CLR,,0.00,WeatherDisplay:10.37,2013-01-07 06:04:00,
2013-01-07 17:09:00,87.6,62.4,29.32,ESE,112,4.0,4.3,43,0.00,CLR,,0.00,WeatherDisplay:10.37,2013-01-07 06:09:00,
2013-01-07 17:14:00,87.6,62.4,29.32,ESE,112,6.9,6.9,43,0.00,CLR,,0.00,WeatherDisplay:10.37,2013-01-07 06:14:00,
2013-01-07 17:19:00,87.4,62.8,29.32,SSE,158,5.8,5.8,44,0.00,CLR,,0.00,WeatherDisplay:10.37,2013-01-07 06:19:00,
2013-01-07 17:25:00,87.1,62.5,29.32,East,90,5.4,5.4,44,0.00,CLR,,0.00,WeatherDisplay:10.37,2013-01-07 06:25:00,
2013-01-07 17:30:00,86.7,62.2,29.32,East,90,4.6,4.6,44,0.00,CLR,,0.00,WeatherDisplay:10.37,2013-01-07 06:30:00,
2013-01-07 17:35:00,86.7,62.2,29.32,NNE,22,6.9,6.9,44,0.00,CLR,,0.00,WeatherDisplay:10.37,2013-01-07 06:35:00,
2013-01-07 17:40:00,86.4,62.5,29.32,NE,45,4.9,4.9,45,0.00,CLR,,0.00,WeatherDisplay:10.37,2013-01-07 06:40:00,
2013-01-07 17:45:00,86.0,62.2,29.32,ESE,112,5.8,5.8,45,0.00,CLR,,0.00,WeatherDisplay:10.37,2013-01-07 06:45:00,
2013-01-07 17:50:00,85.6,61.9,29.32,ESE,112,6.9,6.9,45,0.00,CLR,,0.00,WeatherDisplay:10.37,2013-01-07 06:50:00,
2013-01-07 17:56:00,85.3,61.5,29.32,NNE,22,6.0,6.0,45,0.00,CLR,,0.00,WeatherDisplay:10.37,2013-01-07 06:56:00,
2013-01-07 18:01:00,84.7,61.7,29.32,ENE,68,9.2,9.2,46,0.00,CLR,,0.00,WeatherDisplay:10.37,2013-01-07 07:01:00,
2013-01-07 18:06:00,84.4,61.3,29.32,NNW,338,4.6,4.6,46,0.00,CLR,,0.00,WeatherDisplay:10.37,2013-01-07 07:06:00,
2013-01-07 18:11:00,84.2,61.2,29.32,North,0,6.2,6.2,46,0.00,CLR,,0.00,WeatherDisplay:10.37,2013-01-07 07:11:00,
2013-01-07 18:18:00,83.7,61.3,29.32,NNE,22,4.6,4.6,47,0.00,CLR,,0.00,WeatherDisplay:10.37,2013-01-07 07:18:00,
2013-01-07 18:23:00,83.3,61.0,29.32,NE,45,4.6,4.6,47,0.00,CLR,,0.00,WeatherDisplay:10.37,2013-01-07 07:23:00,
2013-01-07 18:28:00,83.1,60.8,29.32,SE,135,5.8,5.8,47,0.00,CLR,,0.00,WeatherDisplay:10.37,2013-01-07 07:28:00,
2013-01-07 18:33:00,82.8,60.5,29.32,NNE,22,4.6,4.6,47,0.00,CLR,,0.00,WeatherDisplay:10.37,2013-01-07 07:33:00,
2013-01-07 18:38:00,82.6,60.9,29.32,NE,45,5.8,5.8,48,0.00,CLR,,0.00,WeatherDisplay:10.37,2013-01-07 07:38:00,
2013-01-07 18:43:00,82.2,60.6,29.32,NE,45,3.5,3.5,48,0.00,CLR,,0.00,WeatherDisplay:10.37,2013-01-07 07:43:00,
2013-01-07 18:48:00,81.9,60.8,29.32,NE,45,4.6,4.7,49,0.00,CLR,,0.00,WeatherDisplay:10.37,2013-01-07 07:48:00,
2013-01-07 18:53:00,81.3,60.3,29.32,ENE,68,4.6,4.6,49,0.00,CLR,,0.00,WeatherDisplay:10.37,2013-01-07 07:53:00,
2013-01-07 18:58:00,80.8,59.8,29.32,ENE,68,5.8,5.8,49,0.00,CLR,,0.00,WeatherDisplay:10.37,2013-01-07 07:58:00,
2013-01-07 19:03:00,80.4,60.1,29.32,ESE,112,6.0,6.0,50,0.00,CLR,,0.00,WeatherDisplay:10.37,2013-01-07 08:03:00,
2013-01-07 19:08:00,80.1,59.7,29.32,NE,45,8.1,8.1,50,0.00,CLR,,0.00,WeatherDisplay:10.37,2013-01-07 08:08:00,
2013-01-07 19:13:00,80.1,59.7,29.32,East,90,3.5,3.5,50,0.00,CLR,,0.00,WeatherDisplay:10.37,2013-01-07 08:13:00,
2013-01-07 19:18:00,79.7,59.4,29.35,NNE,22,6.9,6.9,50,0.00,CLR,,0.00,WeatherDisplay:10.37,2013-01-07 08:18:00,
2013-01-07 19:23:00,79.5,59.2,29.35,ENE,68,5.8,5.8,50,0.00,CLR,,0.00,WeatherDisplay:10.37,2013-01-07 08:23:00,
2013-01-07 19:28:00,79.2,58.9,29.35,NNE,22,5.8,5.8,50,0.00,CLR,,0.00,WeatherDisplay:10.37,2013-01-07 08:28:00,
2013-01-07 19:33:00,78.8,58.6,29.35,ESE,112,7.4,7.4,50,0.00,CLR,,0.00,WeatherDisplay:10.37,2013-01-07 08:33:00,
2013-01-07 19:38:00,78.4,58.8,29.35,ESE,112,5.8,5.8,51,0.00,CLR,,0.00,WeatherDisplay:10.37,2013-01-07 08:38:00,
2013-01-07 19:43:00,78.3,58.6,29.35,East,90,5.8,5.8,51,0.00,CLR,,0.00,WeatherDisplay:10.37,2013-01-07 08:43:00,
2013-01-07 19:48:00,78.1,58.5,29.35,East,90,4.6,4.6,51,0.00,CLR,,0.00,WeatherDisplay:10.37,2013-01-07 08:48:00,
2013-01-07 19:53:00,77.7,58.1,29.35,NE,45,4.6,4.6,51,0.00,CLR,,0.00,WeatherDisplay:10.37,2013-01-07 08:53:00,
2013-01-07 19:58:00,77.5,58.5,29.35,NNW,338,4.6,4.6,52,0.00,CLR,,0.00,WeatherDisplay:10.37,2013-01-07 08:58:00,
2013-01-07 20:03:00,77.5,58.5,29.35,NE,45,2.6,2.6,52,0.00,CLR,,0.00,WeatherDisplay:10.37,2013-01-07 09:03:00,
2013-01-07 20:08:00,77.4,58.9,29.35,NE,45,6.2,6.2,53,0.00,CLR,,0.00,WeatherDisplay:10.37,2013-01-07 09:08:00,
2013-01-07 20:13:00,77.2,58.7,29.35,NE,45,6.0,6.0,53,0.00,CLR,,0.00,WeatherDisplay:10.37,2013-01-07 09:13:00,
2013-01-07 20:18:00,77.0,59.1,29.35,NNE,22,4.6,4.6,54,0.00,CLR,,0.00,WeatherDisplay:10.37,2013-01-07 09:18:00,
2013-01-07 20:23:00,76.8,58.9,29.35,NE,45,2.3,2.3,54,0.00,CLR,,0.00,WeatherDisplay:10.37,2013-01-07 09:23:00,
2013-01-07 20:28:00,76.6,59.8,29.35,NE,45,4.6,4.6,56,0.00,CLR,,0.00,WeatherDisplay:10.37,2013-01-07 09:28:00,
2013-01-07 20:33:00,76.6,59.8,29.35,NE,45,3.5,3.5,56,0.00,CLR,,0.00,WeatherDisplay:10.37,2013-01-07 09:33:00,
2013-01-07 20:38:00,76.5,60.1,29.35,NE,45,4.6,4.6,57,0.00,CLR,,0.00,WeatherDisplay:10.37,2013-01-07 09:38:00,
2013-01-07 20:43:00,76.5,60.1,29.35,ESE,112,2.3,2.3,57,0.00,CLR,,0.00,WeatherDisplay:10.37,2013-01-07 09:43:00,
2013-01-07 20:48:00,76.3,59.9,29.35,NNW,338,3.5,3.5,57,0.00,CLR,,0.00,WeatherDisplay:10.37,2013-01-07 09:48:00,
2013-01-07 20:53:00,76.3,60.4,29.35,NE,45,2.3,2.3,58,0.00,CLR,,0.00,WeatherDisplay:10.37,2013-01-07 09:53:00,
2013-01-07 20:58:00,75.9,60.1,29.35,ENE,68,3.5,3.5,58,0.00,CLR,,0.00,WeatherDisplay:10.37,2013-01-07 09:58:00,
2013-01-07 21:03:00,75.7,59.9,29.35,East,90,4.6,4.6,58,0.00,CLR,,0.00,WeatherDisplay:10.37,2013-01-07 10:03:00,
2013-01-07 21:08:00,75.7,59.9,29.35,ENE,68,2.3,2.3,58,0.00,CLR,,0.00,WeatherDisplay:10.37,2013-01-07 10:08:00,
2013-01-07 21:13:00,75.6,59.7,29.35,NE,45,3.5,3.5,58,0.00,CLR,,0.00,WeatherDisplay:10.37,2013-01-07 10:13:00,
2013-01-07 21:18:00,75.6,59.7,29.35,NNE,22,4.3,4.3,58,0.00,CLR,,0.00,WeatherDisplay:10.37,2013-01-07 10:18:00,
2013-01-07 21:23:00,75.4,60.1,29.35,ENE,68,2.9,2.9,59,0.00,CLR,,0.00,WeatherDisplay:10.37,2013-01-07 10:23:00,
2013-01-07 21:28:00,75.2,59.9,29.35,NNE,22,5.8,5.8,59,0.00,CLR,,0.00,WeatherDisplay:10.37,2013-01-07 10:28:00,
2013-01-07 21:33:00,75.2,60.4,29.35,NE,45,2.3,2.3,60,0.00,CLR,,0.00,WeatherDisplay:10.37,2013-01-07 10:33:00,
2013-01-07 21:38:00,75.0,60.2,29.35,NE,45,3.5,3.5,60,0.00,CLR,,0.00,WeatherDisplay:10.37,2013-01-07 10:38:00,
2013-01-07 21:43:00,74.8,60.5,29.35,ENE,68,3.5,4.3,61,0.00,CLR,,0.00,WeatherDisplay:10.37,2013-01-07 10:43:00,
2013-01-07 21:48:00,74.8,60.0,29.35,NNE,22,2.9,2.9,60,0.00,CLR,,0.00,WeatherDisplay:10.37,2013-01-07 10:48:00,
2013-01-07 21:53:00,74.8,60.5,29.35,ENE,68,2.4,2.4,61,0.00,CLR,,0.00,WeatherDisplay:10.37,2013-01-07 10:53:00,
2013-01-07 21:58:00,74.7,60.3,29.35,NE,45,2.3,2.3,61,0.00,CLR,,0.00,WeatherDisplay:10.37,2013-01-07 10:58:00,
2013-01-07 22:03:00,74.7,60.3,29.35,NE,45,0.0,0.0,61,0.00,CLR,,0.00,WeatherDisplay:10.37,2013-01-07 11:03:00,
2013-01-07 22:08:00,74.5,60.6,29.35,NE,45,1.2,1.2,62,0.00,CLR,,0.00,WeatherDisplay:10.37,2013-01-07 11:08:00,
2013-01-07 22:13:00,74.5,60.6,29.35,NE,45,0.0,0.0,62,0.00,CLR,,0.00,WeatherDisplay:10.37,2013-01-07 11:13:00,
2013-01-07 22:18:00,74.3,60.4,29.35,NE,45,0.0,0.0,62,0.00,CLR,,0.00,WeatherDisplay:10.37,2013-01-07 11:18:00,
2013-01-07 22:23:00,74.1,60.3,29.35,ESE,112,0.0,0.0,62,0.00,CLR,,0.00,WeatherDisplay:10.37,2013-01-07 11:23:00,
2013-01-07 22:28:00,74.1,60.7,29.35,NE,45,0.0,0.0,63,0.00,CLR,,0.00,WeatherDisplay:10.37,2013-01-07 11:28:00,
2013-01-07 22:33:00,74.1,60.7,29.35,SE,135,0.0,0.0,63,0.00,CLR,,0.00,WeatherDisplay:10.37,2013-01-07 11:33:00,
2013-01-07 22:38:00,74.1,60.7,29.35,East,90,0.0,0.0,63,0.00,CLR,,0.00,WeatherDisplay:10.37,2013-01-07 11:38:00,
2013-01-07 22:43:00,73.9,60.5,29.35,NE,45,0.0,0.0,63,0.00,CLR,,0.00,WeatherDisplay:10.37,2013-01-07 11:43:00,
2013-01-07 22:48:00,73.8,60.4,29.35,East,90,0.0,0.0,63,0.00,CLR,,0.00,WeatherDisplay:10.37,2013-01-07 11:48:00,
2013-01-07 22:53:00,73.8,60.4,29.35,SE,135,0.0,0.0,63,0.00,CLR,,0.00,WeatherDisplay:10.37,2013-01-07 11:53:00,
2013-01-07 22:58:00,73.6,60.2,29.35,SE,135,0.0,0.0,63,0.00,CLR,,0.00,WeatherDisplay:10.37,2013-01-07 11:58:00,
2013-01-07 23:03:00,73.6,60.2,29.35,SE,135,0.0,0.0,63,0.00,CLR,,0.00,WeatherDisplay:10.37,2013-01-07 12:03:00,
2013-01-07 23:08:00,73.4,60.0,29.35,NE,45,0.0,0.0,63,0.00,CLR,,0.00,WeatherDisplay:10.37,2013-01-07 12:08:00,
2013-01-07 23:13:00,73.4,60.5,29.35,SE,135,0.0,0.0,64,0.00,CLR,,0.00,WeatherDisplay:10.37,2013-01-07 12:13:00,
2013-01-07 23:18:00,73.2,60.3,29.35,SSE,158,0.0,0.0,64,0.00,CLR,,0.00,WeatherDisplay:10.37,2013-01-07 12:18:00,
2013-01-07 23:23:00,73.2,60.3,29.35,ESE,112,0.0,0.0,64,0.00,CLR,,0.00,WeatherDisplay:10.37,2013-01-07 12:23:00,
2013-01-07 23:28:00,73.0,60.1,29.35,SE,135,0.0,0.0,64,0.00,CLR,,0.00,WeatherDisplay:10.37,2013-01-07 12:28:00,
2013-01-07 23:33:00,72.9,60.0,29.32,SE,135,0.0,0.0,64,0.00,CLR,,0.00,WeatherDisplay:10.37,2013-01-07 12:33:00,
2013-01-07 23:38:00,72.9,60.4,29.32,SSE,158,0.0,0.0,65,0.00,CLR,,0.00,WeatherDisplay:10.37,2013-01-07 12:38:00,
2013-01-07 23:43:00,72.5,59.6,29.32,SSE,158,0.0,0.0,64,0.00,CLR,,0.00,WeatherDisplay:10.37,2013-01-07 12:43:00,
2013-01-07 23:48:00,72.5,59.6,29.32,SE,135,0.0,0.0,64,0.00,CLR,,0.00,WeatherDisplay:10.37,2013-01-07 12:48:00,
2013-01-07 23:53:00,72.3,59.9,29.32,ESE,112,0.0,0.0,65,0.00,CLR,,0.00,WeatherDisplay:10.37,2013-01-07 12:53:00,
2013-01-07 23:58:00,72.1,59.7,29.32,ESE,112,0.0,0.0,65,0.00,CLR,,0.00,WeatherDisplay:10.37,2013-01-07 12:58:00,